W5QLD Weather Reports


time (UTC)temp
F
wind
direction
speed
knots
gust
knots
rain 1hr
in
rain 24hr
in
rain mn
in
humidity
%
barometer
mb
20260504050105 0 0.0 0.9 0.00 0.00 0.00
20260504045020 0 0.0 0.9 0.00 0.00 0.00
20260504044021 0 0.0 0.0 0.00 0.00 0.00
20260504043042 0 0.0 0.9 0.00 0.00 0.00
20260504042020 0 0.0 0.0 0.00 0.00 0.00
20260504041020 0 0.0 0.0 0.00 0.00 0.00
20260504040021 0 0.0 0.9 0.00 0.00 0.00
20260504035040 0 0.0 1.7 0.00 0.00 0.00
20260504034020 0 0.0 1.7 0.00 0.00 0.00
20260504033020 0 0.0 0.9 0.00 0.00 0.00
20260504032020 0 0.0 0.9 0.00 0.00 0.00
20260504031020 0 0.0 4.3 0.00 0.00 0.00
20260504030020 0 0.0 3.5 0.00 0.00 0.00
20260504025021 0 0.0 3.5 0.00 0.00 0.00
20260504024020 0 0.0 0.9 0.00 0.00 0.00
20260504023019 0 0.0 2.6 0.00 0.00 0.00
20260504022020 0 0 0.9 3.5 0.00 0.00 0.00
20260504021021 0 0 0.9 4.3 0.00 0.00 0.00
20260504020021 0 0.0 3.5 0.00 0.00 0.00
20260504015020 0 0.0 1.7 0.00 0.00 0.00
20260504014020 0 0 0.9 5.2 0.00 0.00 0.00
20260504013020 0 0 0.9 4.3 0.00 0.00 0.00
20260504012020 0 0.0 4.3 0.00 0.00 0.00
20260504011020 0 45 0.9 7.0 0.00 0.00 0.00
20260504010100 0 0 0.9 5.2 0.00 0.00 0.00
20260504005020 0 0 0.9 4.3 0.00 0.00 0.00
20260504004017 0 45 0.9 5.2 0.00 0.00 0.00
20260504003020 0 0.0 1.7 0.00 0.00 0.00
20260504002020 0 45 0.9 5.2 0.00 0.00 0.00
20260504001040 0 45 0.9 4.3 0.00 0.00 0.00
20260504000020 0 45 1.7 5.2 0.00 0.00 0.00
20260503235020 0 45 1.7 5.2 0.00 0.00 0.00
20260503234020 0 45 1.7 5.2 0.00 0.00 0.00
20260503233019 0 45 0.9 4.3 0.00 0.00 0.00
20260503232020 0 45 1.7 5.2 0.00 0.00 0.00
20260503231019 0 45 3.5 7.0 0.00 0.00 0.00
20260503230039 0 45 0.9 5.2 0.00 0.00 0.00
20260503225019 0 45 0.9 4.3 0.00 0.00 0.00
20260503224019 0 45 0.9 6.1 0.00 0.00 0.00
20260503223019 0 45 0.9 5.2 0.00 0.00 0.00
20260503222019 0 45 3.5 6.1 0.00 0.00 0.00
20260503221020 0 45 3.5 8.7 0.00 0.00 0.00
20260503220019 0 45 3.5 8.7 0.00 0.00 0.00
20260503215041 0 45 5.2 8.7 0.00 0.00 0.00
20260503214041 0 45 3.5 7.8 0.00 0.00 0.00
20260503213021 0 45 3.5 7.8 0.00 0.00 0.00
20260503212019 0 0 2.6 6.1 0.00 0.00 0.00
20260503211019 0 45 4.3 7.8 0.00 0.00 0.00
20260503210019 0 45 4.3 6.1 0.00 0.00 0.00
20260503205020 0 45 4.3 7.8 0.00 0.00 0.00
20260503204100 0 45 6.1 13.0 0.00 0.00 0.00
20260503203020 0 45 5.2 10.4 0.00 0.00 0.00
20260503202019 0 45 4.3 7.8 0.00 0.00 0.00
20260503201017 0 45 3.5 7.8 0.00 0.00 0.00
20260503200019 0 45 4.3 7.8 0.00 0.00 0.00
20260503195042 0 45 4.3 8.7 0.00 0.00 0.00
20260503194019 0 45 4.3 8.7 0.00 0.00 0.00
20260503193020 0 45 4.3 10.4 0.00 0.00 0.00
20260503192039 0 45 4.3 8.7 0.00 0.00 0.00
20260503191020 0 45 4.3 8.7 0.00 0.00 0.00
20260503190020 0 45 4.3 8.7 0.00 0.00 0.00
20260503185019 0 45 3.5 7.8 0.00 0.00 0.00
20260503184021 0 45 4.3 8.7 0.00 0.00 0.00
20260503183041 0 45 4.3 9.6 0.00 0.00 0.00
20260503182019 0 45 4.3 7.8 0.00 0.00 0.00
20260503181019 0 45 4.3 8.7 0.00 0.00 0.00
20260503180041 0 45 4.3 9.6 0.00 0.00 0.00
20260503175040 0 45 3.5 7.8 0.00 0.00 0.00
20260503174119 0 45 4.3 8.7 0.00 0.00 0.00
20260503173020 0 45 3.5 8.7 0.00 0.00 0.00
20260503172039 0 45 2.6 5.2 0.00 0.00 0.00
20260503171019 0 45 4.3 9.6 0.00 0.00 0.00
20260503131019 0 0.0 0.9 0.00 0.00 0.00
20260503081020 0 45 0.9 5.2 0.00 0.00 0.00
20260503072019 0 45 1.7 6.1 0.00 0.00 0.00
20260503071019 0 45 0.9 6.1 0.00 0.00 0.00